Location: Newark
(45.4422°N, 16.2769°E)
Time: 01:29:15
(UTC+00:00)

Courier 1B Rocket - Pass Details

Date: 15 December 2019
Orbit: 920 x 1202 km, 28.2° (Epoch: 23 January)

Event Time Altitude Azimuth Distance (km) Brightness Sun altitude
Rises 05:03:28 0° 238° (WSW) 3,920 - -14.0°
Exits shadow 05:03:33 - 238° (WSW) 3,899 7.8 -14.0°
Reaches altitude 10° 05:07:15 10° 221° (SW) 2,906 7.3 -13.4°
Maximum altitude 05:11:47 18° 181° (S) 2,289 7.2 -12.7°
Drops below altitude 10° 05:16:09 10° 140° (SE) 2,770 8.4 -12.0°
Sets 05:19:37 0° 122° (ESE) 3,669 9.9 -11.4°
